Home > Weather > Sola > Past weeks

Flag for Norway Past Weather in Sola, Norway — Yesterday and Last 2 Weeks

Now
58 °F

Sunny.


Feels Like: 58 °F
Forecast: 61 / 72 °F
Wind: 1 mph from North

Location: Stavanger / Sola

Current Time: May 30, 2016 at 9:00:17 AM

Latest Report: May 30, 2016 at 8:00 AM


Visibility: 31 mi

Pressure: 30.08 "Hg

Humidity: 84%

Dew Point: 53 °F

Location of SolaLocation

Past Weather in Sola — Graph

°F

Sola Temperature Yesterday

Maximum temperature yesterday: 67 °F (at 2:00 PM)
Minimum temperature yesterday: 50 °F (at 2:00 AM)
Average temperature yesterday: 59 °F

High & Low Weather Summary for the Past Weeks

 TemperatureHumidityPressure
High67 °F (May 29, 2:00 PM)99% (May 23, 1:00 AM)30.18 "Hg (May 23, 1:00 AM)
Low43 °F (May 16, 3:00 AM)37% (May 25, 2:00 PM)29.65 "Hg (May 18, 6:00 PM)
Average52 °F80%29.93 "Hg
* Reported May 15 8:00 AM — May 30 8:00 AM, Sola, Weather by CustomWeather, © 2016

Note: Actual official high and low records may vary slightly from our data, if they occured in-between our weather recording intervals... More about our weather records

Advertising

Sola Weather History for the Previous 24 Hours

Scroll right to see more
 ConditionsComfort  
Time TempWeatherWind HumidityBarometerVisibility
8:00 AM
Mon, May 30
58 °FSunny.1 mph84%30.08 "Hg31 mi
7:00 AM56 °FSunny.No wind79%30.08 "Hg31 mi
6:00 AM54 °FSunny.No wind82%30.08 "Hg31 mi
5:00 AM53 °FSunny.No wind88%30.07 "Hg31 mi
4:00 AM54 °FClear.1 mph84%30.09 "Hg31 mi
3:00 AM56 °FClear.1 mph81%30.09 "Hg31 mi
2:00 AM54 °FClear.No wind86%30.09 "Hg31 mi
12:00 AM59 °FClear.2 mph69%30.09 "Hg31 mi
11:00 PM
Sun, May 29
62 °FClear.3 mph63%30.09 "Hg31 mi
10:00 PM64 °FSunny.3 mph60%30.08 "Hg31 mi
9:00 PM64 °FSunny.5 mph70%30.07 "Hg28 mi
8:00 PM67 °FPassing clouds.1 mph62%30.07 "Hg22 mi
3:00 PM67 °FPartly sunny.5 mph59%30.07 "Hg25 mi
2:00 PM67 °FPassing clouds.5 mph56%30.06 "Hg19 mi
1:00 PM65 °FPartly sunny.5 mph64%30.07 "Hg25 mi
12:00 PM62 °FPartly sunny.3 mph70%30.08 "Hg28 mi
11:00 AM62 °FScattered clouds.3 mph69%30.09 "Hg28 mi
Weather by CustomWeather, © 2016

See weather overviewHow to use our weather pages